GAOFEN 5-02 (49122 NORAD) Tracking and Keplerian Element Data

This shows tracking and keplerian element data for the satellite.

Feedback or suggestion? Click here.




ElementValue
Catalog49122
NameGAOFEN 5-02
Epoch Orbit737
Epoch Day300.75443002
Epoch Year2021
RAAN11.8257
Inclination98.2783
Eccentricity0.0003014
Argument of Perigee108.1841
Mean Anonmoly251.969
Mean Motion14.57689504
Decay Rate1E-06
L11 49122U 21079A 21300.75443002 .00000100 00000-0 32020-4 0 9990
L22 49122 98.2783 11.8257 0003014 108.1841 251.9690 14.57689504 7370

Live tracking and technical data element details for GAOFEN 5-02 (NORAD 49122). GAOFEN 5-02 can be tracked NOW for your location showing map with azimuth and elevation plus other details from your city location.

Track the satellite on the map from your city or location and see movement details for azimuth, elevation, latitude, longitude, range, height, and movement on the map or in text.







IsCatalogInMostPopularTable: catalog: 49122, numindb: 16
Update: records affected: 1



GetName: 49122 GAOFEN 5-02

Hit Count: updated at: Thu, 28 Oct 2021 10:46:13 GMT